STARLINK-34446 (65495 NORAD) Tracking and Keplerian Element Data

This shows tracking and keplerian element data for the satellite.

Feedback or suggestion? Click here.




ElementValue
Catalog65495
NameSTARLINK-34446
Epoch Orbit1638
Epoch Day354.07739364
Epoch Year2025
RAAN284.1661
Inclination53.1606
Eccentricity0.0001323
Argument of Perigee85.8264
Mean Anonmoly274.2892
Mean Motion15.39614743
Decay Rate0.00032929
L11 65495U 25198D 25354.07739364 .00032929 00000+0 82980-3 0 9996
L22 65495 53.1606 284.1661 0001323 85.8264 274.2892 15.39614743 16387



Live tracking and technical data element details for STARLINK-34446 (NORAD 65495). STARLINK-34446 can be tracked NOW for your location showing map with azimuth and elevation plus other details from your city location.







IsCatalogInMostPopularTable: catalog: 65495, numindb: 10
Update: records affected: 1



GetName: 65495 STARLINK-34446

Hit Count: updated at: Sat, 11 Apr 2026 21:43:09 GMT